Location: ?????????
(54.7630°N, 39.4991°E)
Time: 08:05:46
(UTC+00:00)

IRS-1C Rocket - Pass Details

Date: 14 April 2026
Orbit: 799 x 804 km, 98.7° (Epoch: 12 May)

Event Time Altitude Azimuth Distance (km) Brightness Sun altitude
Exits shadow 19:01:20 28° 182° (S) 1,488 5.1 -19.2°
Maximum altitude 19:04:09 65° 257° (WSW) 884 4.3 -19.4°
Drops below altitude 10° 19:09:26 10° 339° (NNW) 2,398 7.7 -19.8°
Sets 19:11:48 0° 343° (NNW) 3,333 8.7 -20.0°
